User: anonymous   Login
Location: Unspecified
(0.0000°N, 0.0000°E)
Time: 23:29:05
(UTC+00:00)
Language:

USA 105 - Orbit

View from above orbital plane
View from above orbital plane
View from above satellite
View from above satellite

Ground track
Ground track

The orbit data is extracted from the following two-line orbital elements,

1 23223U 94054A   17326.79480184 0.00000000  00000-0  00000-0 0    07
2 23223  11.1258  32.8147 0031584 143.2022 217.0305  1.00270000    00
Epoch (UTC): 22 November 2017 19:04:30
Eccentricity: 0.0031584
inclination: 11.1258°
perigee height: 35653 km
apogee height: 35920 km
right ascension of ascending node: 32.8147°
argument of perigee: 143.2022°
revolutions per day: 1.00270000
mean anomaly at epoch: 217.0305°
orbit number at epoch: 0

The dashed part of the orbit path shows where the satellite is in the earth's shadow,  

DLR